Location: Little Chesterford
(52.0500°N, 0.1833°E)
Time: 13:06:29
(UTC+00:00)

Cosmos 1048 Rocket - Pass Details

Date: 26 September 2023
Orbit: 742 x 789 km, 74.0° (Epoch: 10 December)

Event Time Altitude Azimuth Distance (km) Brightness Sun altitude
Rises 18:32:59 0° 197° (SSW) 3,270 7.4 -7.6°
Reaches altitude 10° 18:35:22 10° 196° (SSW) 2,348 6.6 -7.9°
Maximum altitude 18:40:42 75° 112° (ESE) 821 4.0 -8.7°
Drops below altitude 10° 18:46:04 10° 28° (NNE) 2,359 6.4 -9.6°
Sets 18:48:28 0° 27° (NNE) 3,288 7.1 -9.9°
